{"data":{"norad_id":60598,"epoch":"2026-05-25T03:46:16.877856Z","epoch_age_seconds":61385,"freshness":"FRESH","line1":"1 60598U 24150R   26145.15713979  .00000459  00000+0  27626-4 0  9994","line2":"2 60598  53.1606 312.2162 0001025  94.8922 265.2196 15.30194686 99743","mean_motion":15.30194686,"eccentricity":0.0001025,"inclination_deg":53.1606,"raan_deg":312.2162,"arg_perigee_deg":94.8922,"mean_anomaly_deg":265.2196,"bstar":2.7626e-5,"rev_number":9974,"period_min":94.105672511792,"perigee_km":474.52846589794,"apogee_km":475.93340632484,"semimajor_km":6853.3679361114,"source":"CELESTRAK","updated_at":"2026-05-25T13:38:19.281608Z"}}